Lid_Strength_Index
2 4 4 4 9 9 10 10 8 8 8 5 4 5 6 6 8 11 1 -0 -0 -0 -1 -1 -2 -2 -2 -2 -2 -2 -2 -2 -2 -2 -2 -2 -2 -2 -2 -2 -2 -2 -2 -2 -2 -2 -2 -2 -2
5 5 4 6 10 12 10 8 9 8 5 4 5 5 6 8 4 4 3 -0 -1 -0 -1 -1 -1 -2 -2 -2 -2 -2 -2 -2 -2 -2 -2 -2 -2 -2 -2 -2 -2 -2 -2 -2 -2 -2 -2 -2 -2
5 5 7 8 10 11 10 9 8 6 5 5 6 4 5 7 4 3 0 -0 -1 -0 -1 -1 -1 -2 -2 -2 -2 -2 -2 -2 -2 -2 -2 -2 -2 -2 -2 -2 -2 -2 -2 -2 -2 -2 -2 -2 -2
6 6 7 11 11 9 9 8 7 6 5 4 5 7 4 2 3 1 -0 -0 -0 -0 -1 -1 -2 -2 -2 -1 -2 -2 -2 -2 -2 -2 -2 -2 -2 -2 -2 -2 -2 -2 -2 -2 -2 -2 -2 -2 -2
6 6 10 11 10 10 9 8 6 6 5 5 5 7 6 3 1 0 0 -0 -0 -1 -1 -1 -1 -1 -2 -1 -2 -2 -2 -2 -2 -2 -2 -2 -2 -2 -2 -2 -2 -2 -2 -2 -2 -2 -2 -2 -2
9 8 11 12 10 10 9 8 7 6 5 5 6 6 6 2 2 1 -0 -0 -1 -0 -1 -1 -0 -1 -1 -1 -2 -2 -2 -2 -2 -2 -2 -2 -2 -2 -2 -2 -2 -2 -2 -2 -2 -2 -2 -2 -2
8 9 11 10 10 10 9 7 7 6 6 6 4 6 5 3 1 1 0 -0 -0 -1 -1 -1 -1 -1 -0 -1 -1 -2 -2 -2 -2 -2 -2 -2 -2 -2 -2 -2 -2 -2 -2 -2 -2 -2 -2 -2 -2
7 8 10 10 11 10 8 7 6 5 6 3 3 6 7 3 1 1 0 1 1 -1 -1 -0 -1 -1 -1 -1 1 -0 -1 -1 -2 -1 -1 -1 -1 -2 -2 -1 -2 -2 -2 -2 -2 -2 -2 -2 -2
7 10 11 10 10 10 8 8 7 4 5 4 4 4 3 2 1 2 2 1 1 0 -0 -0 -1 -1 -1 -1 -0 0 0 -0 -0 -1 0 -0 -1 -1 -1 -0 -1 -2 -2 -2 -2 -2 -1 -1 -1
9 10 10 9 9 10 8 8 8 6 6 5 5 3 2 2 3 3 3 3 2 2 0 -0 -0 -1 -1 -1 -1 -1 -1 -1 -1 -1 -1 -1 -1 -1 -1 -0 -1 -1 -2 -2 -2 -1 -1 -1 -1
8 10 8 10 9 9 9 8 7 6 6 5 5 5 4 3 3 3 3 2 2 1 1 -0 -0 -1 -1 -1 -1 -0 -0 -1 -1 -1 -1 -1 -1 -1 -1 -1 -1 -2 -1 -1 -1 -1 -1 -1 -1
9 8 8 10 10 10 10 8 7 5 5 4 3 3 3 4 4 3 3 2 2 1 1 -0 -1 -1 -1 -1 -0 -0 -0 -1 -1 -1 -1 -1 -1 -1 -1 -1 -1 -1 -1 -1 -1 -1 -1 -1 -1
8 8 9 10 10 10 10 10 7 5 4 4 3 3 4 4 4 2 2 1 1 2 1 0 -0 0 -1 -0 0 -1 -1 -1 -1 -1 -1 -1 -1 -1 -1 -1 -1 -1 -1 -1 -1 -1 -1 -1 -1
7 7 9 10 9 10 10 10 8 5 4 4 4 4 4 4 4 3 2 2 2 1 1 0 0 0 -1 -0 0 -1 -1 -1 -1 -1 -1 -1 -1 -1 -1 -1 -1 -1 -1 -1 -1 -1 -1 -1 -1
6 7 7 9 8 9 10 10 11 6 4 4 4 4 4 4 3 3 2 2 2 1 1 1 1 1 -0 -0 -1 -1 -1 -1 -1 -1 -1 -1 -1 -1 -1 -1 -1 -1 -1 -1 -1 -1 -1 -1 -1
9 8 11 7 8 8 9 11 9 7 6 5 4 4 4 4 3 2 2 2 1 1 1 0 0 0 -0 -1 -1 -1 -1 -1 -1 -1 -1 -1 -1 -1 -1 -1 -1 -1 -1 -1 -1 -1 -0 -0 -0
9 13 11 9 6 8 9 10 7 8 8 6 4 4 4 4 3 2 2 1 1 1 1 1 0 0 0 -1 -1 -1 -1 -1 -1 -1 -1 -1 -1 -1 -1 -1 -1 -1 -1 -1 -1 -0 -0 0 0
13 13 11 11 8 8 9 10 8 8 8 7 6 4 4 4 4 2 2 1 1 0 0 0 0 0 -0 -0 -1 -1 -1 -1 -1 -1 -1 -1 -1 -1 -1 -1 -1 -1 -1 -0 -0 0 -0 0 0
10 11 12 10 9 9 9 10 9 7 7 8 7 5 4 4 3 2 2 1 1 1 1 1 1 0 0 0 1 1 1 0 -0 -1 -1 -1 -1 -1 -1 -1 -1 -1 -0 -0 -0 0 1 1 -0
11 12 12 10 9 9 9 10 9 8 7 7 7 5 5 4 3 3 2 2 2 1 1 1 1 0 0 0 0 0 0 0 -0 -1 -1 -1 -1 -1 -1 -1 -0 -1 -0 0 0 0 1 1 0
11 12 11 12 10 10 10 11 9 8 7 7 6 5 4 4 4 3 3 3 2 2 1 1 1 0 0 0 0 0 0 0 1 0 0 -1 -1 -1 -1 -0 -1 -0 -0 0 0 0 1 2 1
13 9 10 11 12 16 10 18 11 9 8 7 7 6 4 4 4 3 3 3 2 2 1 1 1 1 0 0 1 1 2 2 1 1 0 -0 -1 -1 -1 -0 -0 -0 -1 0 0 -0 0 1 2
12 9 10 11 13 14 14 16 12 9 9 8 7 6 5 4 4 3 3 3 2 2 1 1 1 1 0 0 1 1 2 1 1 1 1 0 -0 -1 -1 -1 -1 -0 -0 -0 1 1 1 0 1
8 11 11 13 14 19 14 15 14 11 9 8 7 7 6 6 4 3 2 2 2 1 1 1 1 1 1 1 1 1 1 1 1 1 1 1 0 -0 -0 -0 -0 -0 0 1 2 2 2 1 1
10 13 19 20 20 20 12 15 13 9 7 7 7 7 6 6 5 4 3 3 3 2 2 2 2 2 1 1 1 1 1 1 1 1 1 1 1 1 0 0 1 2 2 4 4 4 2 2 4
12 12 16 20 19 16 13 16 12 7 6 7 7 6 7 6 7 7 6 3 3 2 2 2 2 2 1 1 1 1 1 1 1 1 1 1 1 1 -0 1 2 3 4 6 5 5 5 5 6
13 15 10 14 17 16 13 11 10 8 8 8 8 7 5 7 8 7 6 6 4 2 2 2 2 2 1 1 1 1 1 1 1 1 0 1 0 1 2 3 4 5 6 7 7 7 8 7 7
10 9 16 15 20 20 14 14 13 10 9 8 7 7 7 7 6 7 7 6 6 5 4 2 1 2 1 1 1 1 1 1 1 1 1 1 1 3 4 5 6 7 8 8 7 8 8 9 9
12 13 12 12 14 18 18 14 9 9 11 10 9 9 9 9 8 8 7 7 7 7 6 6 4 2 2 1 1 1 1 1 1 1 1 1 2 4 5 7 8 8 9 9 9 9 9 10 10
10 12 12 15 17 15 15 15 11 10 10 10 10 9 8 8 8 8 8 8 8 8 7 8 7 5 2 1 1 1 1 1 1 1 1 2 3 5 6 8 10 11 10 10 10 11 10 11 11